User: anonymous   Login
Location: Unspecified
(0.0000°N, 0.0000°E)
Time: 23:34:53
(UTC+00:00)
Language:

Transit VE-3 - Orbit

View from above orbital plane
View from above orbital plane
View from above satellite
View from above satellite

Ground track
Ground track

The orbit data is extracted from the following two-line orbital elements,

1 00705U 63049C   18142.45977682  .00000052  00000-0  68622-4 0  9993
2 00705  89.9099  97.6456 0036145  94.3705  27.1426 13.47318718675702
Epoch (UTC): 22 May 2018 11:02:04
Eccentricity: 0.0036145
inclination: 89.9099°
perigee height: 1055 km
apogee height: 1109 km
right ascension of ascending node: 97.6456°
argument of perigee: 94.3705°
revolutions per day: 13.47318718
mean anomaly at epoch: 27.1426°
orbit number at epoch: 67570

The dashed part of the orbit path shows where the satellite is in the earth's shadow,  

DLR